EHI
0 0 0 0 0 0 0 0 0 0 0 0 0 0 0 0 0 0 0 0 0 0 0 0 0 0 1 2 2 2 1 0 0 0 0 1 2 4 4 4 4 5 6 4 3 3 2 1 0
0 0 0 0 0 0 0 0 0 0 0 0 0 0 0 0 0 0 0 0 0 0 0 0 0 0 0 1 1 1 0 0 0 0 0 0 1 2 3 3 3 3 4 3 2 2 2 1 0
0 0 0 0 0 0 0 0 0 0 0 0 0 0 0 0 0 0 0 0 0 0 0 0 0 0 0 0 0 0 0 0 0 0 0 0 1 2 2 2 2 1 2 2 2 2 1 0 0
0 0 0 0 0 0 0 0 0 0 0 0 0 0 0 0 0 0 0 0 0 0 0 0 0 0 0 0 0 0 0 0 0 0 0 0 1 1 1 1 1 1 1 2 3 2 1 0 0
0 0 0 0 0 0 0 0 0 0 0 0 0 0 0 0 0 0 0 0 0 0 0 0 0 0 0 0 0 0 0 0 0 0 0 0 0 0 0 0 0 0 0 1 3 2 0 0 0
0 0 0 0 0 0 0 0 0 0 0 0 0 0 0 0 0 0 0 0 0 0 0 0 0 0 0 0 0 0 0 0 0 0 0 0 0 0 0 0 0 0 0 0 1 2 1 0 0
0 0 0 0 0 0 0 0 0 0 0 0 0 0 0 0 0 0 0 0 0 0 0 0 0 0 0 0 0 0 0 0 0 0 0 0 0 0 0 0 0 0 0 0 1 2 1 0 0
0 0 0 0 0 0 0 0 0 0 0 0 0 0 0 0 0 0 0 0 0 0 0 0 0 0 0 0 0 0 0 0 0 0 0 0 0 0 0 0 0 0 0 0 0 1 1 0 1
0 0 0 0 0 0 0 0 0 0 0 0 0 0 0 0 0 0 0 0 0 0 0 0 0 0 0 0 0 0 0 0 0 0 0 0 0 0 0 0 0 0 0 0 0 0 0 0 1
0 0 0 0 0 0 0 0 0 0 0 0 0 0 0 0 0 0 0 0 0 0 0 0 0 0 0 0 0 0 0 0 0 0 0 0 0 0 0 0 0 0 0 0 0 0 0 0 1
0 0 0 0 0 0 0 0 0 0 0 0 0 0 0 0 0 0 0 0 0 0 0 0 0 0 0 0 0 0 0 0 0 0 0 0 0 0 0 0 0 0 0 0 0 0 0 0 0
0 0 0 0 0 0 0 0 0 0 0 0 1 1 1 0 0 0 0 0 0 0 0 0 0 0 0 0 0 0 0 0 0 0 0 0 0 0 0 0 0 0 0 0 0 0 0 0 0
0 0 0 0 0 0 0 0 0 0 0 0 1 1 1 0 0 0 0 0 0 0 0 0 0 0 0 0 0 0 0 0 0 0 0 0 0 0 0 0 0 0 0 0 0 0 0 0 0
0 0 0 0 0 0 0 0 0 0 0 0 0 0 0 0 0 0 0 0 0 0 0 0 0 0 0 0 0 0 0 0 0 0 0 0 0 0 0 0 0 0 0 0 0 0 0 0 0
0 0 0 0 0 0 0 0 0 0 0 0 0 0 0 0 0 0 0 0 0 0 0 0 0 0 0 0 0 0 0 0 0 0 0 0 0 0 0 0 0 0 0 0 0 0 0 0 0
0 0 0 0 0 0 0 0 0 0 0 0 0 0 0 0 0 0 1 1 1 0 0 0 0 0 0 0 0 0 0 0 0 0 0 0 0 0 0 0 0 0 0 0 0 0 0 0 0
0 0 0 0 0 0 0 0 0 0 0 0 0 0 0 0 0 0 1 2 2 1 0 0 0 0 0 0 0 0 0 0 0 0 0 0 0 0 0 0 0 0 0 0 0 0 0 0 0
0 0 0 0 0 0 0 0 0 0 0 0 0 0 0 0 0 0 1 2 3 2 1 0 0 0 0 0 0 0 0 0 0 0 0 0 0 0 0 0 0 0 0 0 0 0 0 0 0
0 0 0 0 0 0 0 0 0 0 0 0 0 0 0 0 0 0 1 1 2 1 1 0 0 0 0 0 0 0 0 0 0 0 0 0 0 0 0 0 0 0 0 0 0 0 0 0 0
0 0 0 0 0 0 0 0 0 0 0 0 0 0 0 0 0 0 0 0 0 0 0 0 0 0 0 0 0 0 0 0 0 0 0 0 0 0 0 0 0 0 0 0 0 0 0 0 0
0 0 0 0 0 0 0 0 0 0 0 0 0 0 0 0 0 0 0 0 0 0 0 0 0 0 0 0 0 0 0 0 0 0 0 0 0 0 0 0 0 0 0 0 0 0 0 0 0
0 0 0 0 0 0 0 0 0 0 0 0 0 0 0 0 0 0 0 0 0 0 0 0 0 0 0 0 0 0 0 0 0 0 0 0 0 0 0 0 0 0 0 0 0 0 0 0 0
0 0 0 0 0 0 0 0 0 0 0 0 0 0 0 0 0 0 0 0 0 0 0 0 0 0 0 0 0 0 0 0 0 0 0 0 0 0 0 0 0 0 0 0 0 0 0 0 0
0 0 0 0 0 0 0 0 0 0 0 0 0 0 0 0 0 0 0 0 0 0 0 0 0 0 0 0 0 0 0 0 0 0 0 0 0 0 0 0 0 0 0 0 0 0 0 0 0
0 0 0 0 0 0 0 0 0 0 0 0 0 0 0 0 0 0 0 0 0 0 0 0 0 0 0 0 0 0 0 0 0 0 0 0 0 0 0 0 0 0 0 0 0 0 0 0 0
0 0 0 0 0 0 0 0 0 0 0 0 0 0 0 0 0 0 0 0 0 0 0 0 0 0 0 0 0 0 0 0 0 0 0 0 0 0 0 0 0 0 0 0 0 0 0 0 0
0 0 0 0 0 0 0 0 0 0 0 0 0 0 0 0 0 0 0 0 0 0 0 0 0 0 0 0 0 0 0 0 0 0 0 0 0 0 0 0 0 0 0 0 0 0 0 0 0
0 0 0 0 0 0 0 0 0 0 0 0 0 0 0 0 0 0 0 0 0 0 0 0 0 0 0 0 0 0 0 0 0 0 0 0 0 0 0 0 0 0 0 0 0 0 0 0 0
0 0 0 0 0 0 0 0 0 0 0 0 0 0 0 0 0 0 0 0 0 0 0 0 0 0 0 0 0 0 0 0 0 0 0 0 0 0 0 0 0 0 0 0 0 0 0 0 0
0 0 0 0 0 0 0 0 0 0 0 0 0 0 0 0 0 0 0 0 0 0 0 0 0 0 0 0 0 0 0 0 0 0 0 0 0 0 0 0 0 0 0 0 0 0 0 0 0
Wind_Speed
6 6 3 3 3 3 1 1 1 0 0 0 2 4 4 3 1 1 0 3 5 5 4 5 7 7 7 6 6 5 5 4 4 3 3 3 2 2 2 2 2 2 1 1 1 1 1 1 1
5 4 3 3 3 1 2 1 2 2 2 2 3 3 4 3 3 3 1 3 6 5 4 4 7 6 6 6 5 4 4 4 3 2 2 1 1 0 0 1 1 1 1 1 0 0 0 0 1
5 3 3 2 1 2 2 1 1 1 2 2 3 4 3 2 2 2 2 6 6 5 3 4 7 6 6 5 4 4 3 3 2 2 1 1 1 2 2 2 2 3 2 2 2 1 2 2 2
3 3 2 2 1 2 2 1 1 1 2 2 3 4 2 2 2 4 6 7 6 4 3 3 6 6 5 4 4 3 2 2 2 2 2 2 3 3 3 4 4 4 4 4 3 3 3 3 3
3 3 2 1 1 2 1 1 2 1 2 2 3 4 2 2 4 7 7 6 6 4 2 2 5 5 4 4 3 2 2 1 2 2 3 3 3 4 5 5 5 5 5 4 4 4 4 4 4
3 3 2 0 2 2 1 0 1 2 2 3 4 4 1 2 5 6 6 5 5 4 3 2 4 4 4 3 2 2 1 1 2 3 3 4 4 4 5 5 5 5 5 5 5 4 5 6 5
3 2 1 1 1 2 0 1 2 2 2 3 5 5 2 2 4 6 5 4 4 3 3 1 1 1 2 2 2 1 1 1 3 4 4 5 5 5 6 6 5 5 6 5 5 5 6 6 6
2 3 1 1 1 2 0 0 1 2 2 3 4 6 5 5 5 5 4 3 3 2 2 1 1 1 1 1 1 0 1 2 3 4 5 6 6 6 7 6 6 6 6 6 6 6 6 6 6
2 3 1 3 3 2 1 1 1 1 3 2 2 4 4 8 8 6 4 2 1 2 1 1 1 1 0 1 1 2 3 4 5 5 6 6 3 4 4 6 6 5 5 6 6 6 6 5 4
3 2 3 3 3 2 2 2 2 2 2 1 2 3 7 9 9 8 6 5 4 4 3 3 2 2 1 1 1 1 2 3 3 2 3 3 3 3 4 6 8 7 6 6 6 6 5 3 2
2 2 2 1 1 2 2 2 2 4 3 5 6 8 9 8 8 8 7 6 6 5 3 3 3 2 2 1 0 0 1 1 2 3 3 2 2 3 3 3 4 5 5 4 4 4 3 2 1
2 2 1 1 1 1 1 1 1 4 6 5 7 11 11 10 10 10 9 7 5 4 4 3 3 3 2 2 1 1 1 1 1 2 2 2 1 2 2 2 2 2 2 2 2 2 2 2 2
0 1 1 1 2 1 0 1 2 4 4 3 7 10 10 10 9 8 7 6 5 5 5 4 4 4 2 2 1 1 1 0 1 1 1 1 1 1 2 2 2 2 2 2 2 2 2 2 2
1 0 2 2 2 1 1 1 1 4 3 6 8 9 9 10 9 7 6 6 6 6 5 4 4 4 3 2 2 1 1 1 1 1 1 1 1 1 1 2 2 2 2 2 2 2 2 2 1
1 2 3 2 1 1 1 3 4 4 5 6 7 8 8 8 8 9 9 8 8 6 5 5 4 4 4 3 2 2 1 1 1 1 1 1 1 1 1 1 2 2 2 2 2 2 1 2 1
2 3 2 3 1 1 2 5 5 3 6 7 7 7 8 8 8 8 8 7 6 6 5 5 5 5 4 3 2 2 1 2 1 1 1 1 1 1 1 1 2 2 2 2 2 1 1 2 2
3 1 1 3 0 1 2 5 5 2 6 7 7 8 8 7 8 8 8 7 7 7 7 6 5 5 4 3 2 2 2 2 1 1 1 1 2 2 1 1 2 2 2 2 2 1 1 1 2
3 2 1 2 1 1 2 6 8 3 6 8 7 7 7 9 11 8 7 7 7 6 6 6 5 5 4 3 2 2 2 1 1 1 1 1 1 2 1 1 2 3 2 2 2 2 1 1 2
3 2 1 2 1 1 4 7 9 4 4 7 7 7 9 11 7 5 6 6 6 6 7 7 6 5 4 2 2 2 1 0 1 1 1 1 1 2 2 1 2 2 2 2 3 2 2 2 1
2 2 1 3 1 0 3 7 7 3 5 6 7 8 9 8 5 5 6 7 8 8 7 7 7 6 5 3 2 2 2 1 1 1 1 1 2 2 1 1 2 2 2 3 3 2 1 2 2
0 2 1 1 4 4 4 7 6 4 3 3 4 5 5 8 8 7 7 8 7 9 10 9 8 7 5 4 3 2 2 2 1 1 1 2 2 2 1 1 1 2 1 2 2 2 1 1 2
1 2 2 0 3 4 4 3 7 6 7 4 4 3 5 5 6 6 8 8 10 10 8 8 7 7 5 5 4 4 3 2 2 2 1 2 2 2 1 1 1 1 1 2 2 1 1 1 1
2 2 2 2 2 3 4 2 8 5 5 6 6 5 5 5 5 7 9 9 9 8 8 7 7 6 5 5 5 4 3 2 1 1 1 2 2 2 2 1 1 2 2 2 2 2 1 0 0
2 5 5 5 5 3 3 1 5 4 4 7 6 6 5 4 4 5 5 5 5 6 6 7 7 6 6 6 5 5 5 4 2 2 1 2 2 2 2 1 1 1 2 2 2 1 1 1 0
4 5 5 7 5 3 3 0 6 6 4 5 6 6 5 3 3 3 4 6 6 7 8 7 8 7 6 6 6 6 5 5 5 3 3 2 2 2 2 1 1 1 2 2 1 1 1 1 1
2 6 6 3 2 4 4 2 6 5 5 4 3 4 5 4 3 4 4 6 6 8 8 8 9 8 7 7 7 5 5 4 3 4 3 3 3 3 2 2 2 2 2 1 1 1 1 1 1
5 2 4 6 2 2 5 6 8 5 7 7 7 6 7 6 5 4 4 4 5 7 8 10 10 8 8 8 7 6 6 5 5 4 3 3 3 3 3 2 2 2 1 1 0 0 1 1 1
4 7 5 5 4 1 5 4 4 7 7 7 7 7 8 7 6 5 3 4 4 5 5 5 7 9 8 7 7 6 6 6 5 4 4 4 4 3 2 2 2 2 1 1 0 0 1 0 1
3 4 5 5 5 5 1 6 5 4 5 6 7 7 7 8 7 5 4 2 2 2 3 5 5 6 6 7 7 6 6 6 5 5 5 5 4 3 3 3 2 2 2 1 1 1 1 0 1
3 5 6 5 2 3 3 7 4 2 4 4 6 7 7 7 6 5 4 2 1 1 3 4 6 6 7 7 6 7 6 5 5 6 6 5 4 4 4 3 3 3 2 2 2 2 1 1 1
Wind_Direction
129 106 86 61 60 61 257 247 191 206 63 41 67 75 83 74 74 124 0 137 133 134 144 150 145 137 130 126 125 124 122 120 117 116 117 115 112 116 121 131 130 130 131 134 131 126 113 91 67
111 103 69 68 92 99 268 225 185 203 163 144 79 78 74 71 72 98 105 135 131 136 134 142 141 134 128 125 122 120 116 113 114 115 111 105 94 95 244 269 252 241 218 209 212 241 253 316 328
116 85 90 84 114 185 215 209 188 113 155 136 71 59 78 95 111 143 160 137 125 125 125 145 141 135 129 125 118 112 103 93 89 85 59 20 350 324 310 296 288 281 269 258 256 262 271 273 283
99 61 60 79 195 236 225 214 156 108 97 85 99 76 65 65 151 153 140 134 127 124 123 145 140 135 131 127 119 111 97 76 56 31 356 335 321 311 307 303 297 290 283 276 270 271 276 285 285
64 84 77 40 277 274 248 233 173 119 86 86 108 102 61 9 113 131 137 138 138 135 132 151 151 145 139 132 122 113 95 57 26 7 353 340 330 322 319 314 308 300 292 288 281 272 272 272 279
70 74 89 191 285 304 318 278 119 111 116 118 119 116 105 112 130 146 145 141 142 144 139 149 164 154 149 142 133 120 92 49 18 2 349 342 336 330 325 316 310 308 305 297 290 282 276 275 278
108 106 140 189 268 305 330 129 137 136 133 152 138 121 137 173 168 153 144 135 136 139 134 131 119 147 165 155 143 121 43 18 5 355 349 345 342 338 331 322 312 305 299 295 289 283 278 276 277
125 104 94 226 222 253 310 100 136 133 133 121 133 146 184 194 162 136 118 118 129 136 144 160 146 80 28 352 279 310 349 13 6 2 1 1 359 352 342 336 321 309 305 304 300 295 289 280 275
105 79 212 228 207 218 158 88 71 77 117 120 152 176 179 143 133 125 118 119 154 180 192 194 200 196 204 298 299 350 360 9 10 5 8 18 8 353 342 339 339 334 329 326 322 317 312 303 294
98 141 229 225 202 187 168 163 154 107 128 138 95 102 123 133 145 155 167 183 195 209 213 207 212 202 197 275 25 6 15 12 11 5 7 12 4 351 1 354 2 3 1 357 351 346 341 339 336
144 204 260 276 179 174 171 169 155 147 200 202 182 161 146 152 164 176 187 194 205 209 211 199 203 198 189 204 168 26 22 4 358 8 12 15 11 1 9 3 360 1 5 4 358 2 358 349 329
166 245 241 323 84 151 182 148 164 198 224 206 174 159 157 167 181 189 195 201 202 200 212 199 181 180 186 171 158 123 77 1 359 8 26 39 20 5 1 2 346 353 349 343 344 338 336 337 318
187 296 312 311 313 254 229 216 230 252 246 160 146 156 171 181 192 200 201 201 198 201 210 197 173 179 171 151 162 128 142 116 32 24 29 63 63 12 3 352 348 348 348 341 332 332 330 328 315
219 302 331 320 312 303 207 266 213 260 170 147 157 175 188 193 196 198 202 205 203 204 204 192 181 179 162 156 155 152 149 116 80 50 28 53 74 46 25 4 354 346 338 329 319 320 317 305 297
17 28 348 302 267 275 99 307 235 229 151 163 182 192 200 209 205 207 206 204 202 199 192 187 183 164 158 156 156 144 141 121 104 69 37 48 55 52 44 15 356 337 331 334 335 336 335 317 312
59 45 341 302 188 175 129 278 274 178 166 188 199 208 214 221 218 220 210 202 194 185 180 186 177 157 155 145 139 133 123 111 101 69 36 27 25 40 41 19 347 334 340 345 336 339 330 326 321
47 77 288 313 330 123 161 260 284 155 179 207 214 216 222 231 233 226 211 198 189 182 173 173 162 156 147 129 114 109 101 93 79 58 31 3 13 26 35 7 341 344 352 351 336 349 318 311 315
178 177 255 287 310 138 223 264 283 235 202 222 226 226 227 232 233 222 206 191 182 172 166 163 154 147 128 108 88 72 67 46 24 14 341 348 360 9 22 7 353 356 358 352 348 329 333 305 304
138 132 296 283 251 200 251 274 283 270 233 237 235 228 229 237 238 209 194 177 167 164 166 166 160 158 143 133 132 132 168 278 321 315 335 346 351 1 12 3 355 359 357 341 339 336 346 348 341
96 70 335 315 336 216 300 291 288 260 235 235 233 230 229 235 227 205 188 178 178 176 176 173 174 170 174 164 153 155 150 191 249 301 332 342 346 345 352 5 349 352 354 354 356 6 359 350 10
81 185 224 303 354 22 356 333 329 324 305 281 257 238 228 222 219 207 193 191 183 186 185 184 182 178 179 158 119 89 65 37 11 331 319 326 334 333 344 346 343 349 2 340 340 356 26 350 351
257 232 193 53 45 346 27 337 310 324 329 324 297 272 248 237 219 206 197 195 197 196 185 181 177 177 176 163 159 154 161 188 224 234 271 308 327 329 334 337 348 346 346 338 329 9 12 31 344
209 43 85 76 100 25 19 59 299 338 342 322 308 289 265 246 222 214 207 205 201 186 179 177 172 178 176 173 173 165 170 194 215 239 285 310 323 323 325 329 347 339 337 338 343 356 14 28 65
135 68 55 48 65 39 343 72 300 308 297 310 319 318 298 274 246 231 216 197 190 177 176 172 174 185 181 179 181 182 183 186 193 223 255 286 304 306 309 314 337 322 322 328 330 337 6 16 45
79 77 35 18 22 290 310 184 261 277 284 281 296 308 313 292 260 238 214 198 191 185 184 179 181 191 188 186 194 196 194 190 199 209 219 235 263 271 279 292 296 299 301 310 326 349 359 9 36
125 124 139 154 217 296 344 296 267 282 303 313 317 319 331 324 284 252 231 212 202 195 187 183 190 197 191 194 203 200 197 194 206 209 208 219 229 243 256 261 268 280 297 311 339 350 332 14 27
122 112 146 124 122 8 321 316 313 340 355 359 355 351 335 322 304 280 261 228 212 200 197 194 193 198 198 201 200 201 202 202 209 214 213 224 234 241 243 244 260 274 286 294 315 344 339 26 27
124 138 99 99 115 4 323 317 291 320 329 338 342 335 324 326 324 313 283 246 226 213 205 197 199 204 204 201 202 205 206 207 206 205 218 225 232 235 238 243 249 258 262 269 264 288 301 15 336
110 93 98 100 134 140 264 283 245 264 303 315 315 321 321 322 320 318 309 286 242 204 193 199 206 209 208 207 208 209 208 205 202 209 220 221 222 222 227 230 233 235 235 234 240 258 258 238 311
158 153 142 138 177 151 161 266 288 295 314 319 320 325 328 331 331 330 331 341 332 228 215 211 211 213 215 208 206 215 211 200 205 217 223 216 219 222 220 218 220 228 225 218 226 249 236 219 245